date,time,DOY,Ta_1_1_1,Pa_1_1_1,RH_1_1_1,LWin_1_1_1,LWout_1_1_1,SWin_1_1_1,SWout_1_1_1,PPFD_1_1_1,MWS_1_1_1,WD_1_1_1,SWC_1_1_1,Ts_1_1_1
[yyyy-mm-dd],[HH:MM],[ddd.ddd],[K],[Pa],[%],[W+1m-2],[W+1m-2],[W+1m-2],[W+1m-2],[µmol+1m-2s-1],[m+1s-1],[deg],[m+3m-3],[K]
2018-04-11,00:30,101.020,271.81333333333345,94554.933333333334,59.726333333333336,309.60966666666661,290.04566666666659,2.6469999999999998,11.966000000000001,26.387666666666668,4.7433333333333350,186.02233333333334,0.26999999999999980,273.24233333333336
2018-04-11,01:00,101.041,271.61433333333343,94542.666666666672,63.341999999999992,308.91733333333343,296.00699999999995,0.33533333333333337,-1.23333333333333177E-002,1.3893333333333329,4.8233333333333333,189.55600000000001,0.26999999999999980,273.24366666666663
2018-04-11,01:30,101.062,271.39133333333331,94522.533333333340,68.073333333333323,308.09800000000007,296.81733333333341,0.15233333333333335,-0.66433333333333333,4.56666666666666748E-002,4.6266666666666669,186.56666666666666,0.26999999999999980,273.24333333333328
2018-04-11,02:00,101.083,271.11233333333348,94500.766666666663,73.348666666666659,307.09333333333331,295.65366666666671,0.17999999999999999,-0.65633333333333310,3.00000000000000006E-003,4.3199999999999994,183.51066666666665,0.26999999999999980,273.24233333333336
2018-04-11,02:30,101.104,271.08566666666678,94507.100000000006,74.975666666666655,306.82333333333332,294.99066666666670,0.24233333333333332,-0.61166666666666647,1.00000000000000019E-002,4.1900000000000004,186.24366666666666,0.26999999999999980,273.24233333333336
2018-04-11,03:00,101.124,270.90666666666669,94495.966666666660,78.425666666666672,306.11099999999993,296.22966666666673,0.22033333333333333,-0.64466666666666650,3.66666666666666703E-003,3.9900000000000002,184.60066666666668,0.26999999999999980,273.24300000000005
2018-04-11,03:30,101.145,270.95233333333340,94475.100000000006,78.295333333333318,306.05133333333339,293.27366666666666,0.32533333333333325,-0.65199999999999980,5.00000000000000010E-003,3.9833333333333334,183.96666666666667,0.26999999999999980,273.24299999999999
2018-04-11,04:00,101.166,270.88333333333333,94438.066666666666,79.509666666666661,305.81233333333336,296.42766666666677,0.21266666666666670,-0.55633333333333324,1.60000000000000003E-002,4.4100000000000001,190.81100000000001,0.26999999999999980,273.24466666666660
2018-04-11,04:30,101.187,270.69333333333333,94382.733333333337,81.958666666666659,305.10600000000005,296.80900000000003,0.15366666666666670,-0.48666666666666664,4.00000000000000008E-003,4.2866666666666671,183.68866666666665,0.26999999999999980,273.24799999999999
2018-04-11,05:00,101.208,270.58233333333351,94343.800000000003,82.807333333333347,304.72199999999987,296.24099999999999,0.20500000000000004,-0.58166666666666667,9.33333333333333411E-003,4.1500000000000004,184.07800000000000,0.26999999999999980,273.24333333333323
2018-04-11,05:30,101.229,270.59133333333341,94327.000000000000,82.619999999999990,304.66599999999994,296.30266666666665,0.23566666666666675,-0.42699999999999999,1.10000000000000028E-002,4.7533333333333330,187.62099999999998,0.26999999999999980,273.23899999999992
2018-04-11,06:00,101.249,270.66099999999989,94297.033333333340,82.037666666666681,304.75666666666677,295.01999999999992,0.23633333333333334,-0.44133333333333341,-1.66666666666666677E-003,4.9533333333333331,187.93299999999999,0.26999999999999980,273.24866666666657
2018-04-11,06:30,101.270,270.74666666666667,94266.866666666669,81.511666666666642,304.93866666666673,294.33600000000001,0.29133333333333328,-0.45799999999999996,7.66666666666666625E-003,4.7866666666666653,195.74533333333335,0.26999999999999980,273.24433333333332
2018-04-11,07:00,101.291,270.78133333333346,94209.033333333340,81.021000000000001,304.82800000000009,290.61733333333342,0.28599999999999992,-0.70833333333333326,1.59999999999999969E-002,4.8233333333333333,189.90033333333335,0.26999999999999980,273.24166666666667
2018-04-11,07:30,101.312,270.81233333333324,94175.300000000003,80.556999999999974,305.01333333333338,293.37133333333333,0.30666666666666670,-0.54500000000000004,3.33333333333333311E-003,3.9000000000000004,188.67833333333334,0.26999999999999980,273.24333333333328
2018-04-11,08:00,101.333,270.96433333333346,94167.800000000003,79.585666666666654,305.81533333333334,299.36066666666659,0.28066666666666668,-0.23333333333333336,1.96666666666666691E-002,4.0566666666666666,204.76700000000000,0.26999999999999980,273.24333333333328
2018-04-11,08:30,101.354,271.20333333333326,94173.600000000006,78.659000000000020,306.68799999999999,299.99466666666660,0.29533333333333334,-0.21133333333333332,1.10000000000000028E-002,4.1600000000000010,226.02233333333334,0.26999999999999980,273.24000000000001
2018-04-11,09:00,101.374,271.36566666666664,94173.233333333337,77.590999999999994,306.95666666666676,294.97833333333335,0.31399999999999995,-0.60399999999999987,1.30000000000000046E-002,3.9033333333333333,235.04433333333333,0.26999999999999980,273.24533333333329
2018-04-11,09:30,101.395,271.41600000000000,94178.566666666666,76.120000000000033,306.80466666666661,291.58233333333339,0.36333333333333334,-0.77066666666666672,1.00000000000000019E-002,3.7233333333333336,232.50100000000003,0.26999999999999980,273.24333333333328
2018-04-11,10:00,101.416,271.38099999999991,94197.433333333334,75.367333333333349,306.51633333333331,290.03533333333343,0.37433333333333324,-0.87800000000000000,9.33333333333333411E-003,3.2033333333333340,224.21099999999998,0.26999999999999980,273.24499999999995
2018-04-11,10:30,101.437,271.30633333333350,94215.466666666660,74.579666666666668,305.31833333333333,281.00099999999992,0.48733333333333323,-1.2953333333333332,6.00000000000000012E-003,2.9333333333333340,234.17766666666665,0.26999999999999980,273.23733333333331
2018-04-11,11:00,101.458,271.35566666666665,94239.633333333331,72.199333333333328,305.44866666666661,281.21100000000001,0.54166666666666663,-1.1276666666666666,8.26666666666666661E-002,3.3766666666666660,253.91066666666666,0.26999999999999980,273.24266666666676
2018-04-11,11:30,101.479,271.30333333333340,94269.033333333340,72.252999999999986,305.90266666666662,287.62700000000001,0.92899999999999994,1.8979999999999999,5.4589999999999996,3.5466666666666660,265.52166666666665,0.26999999999999980,273.24666666666673
2018-04-11,12:00,101.499,271.02333333333337,94276.666666666672,76.096000000000004,305.31200000000001,283.91733333333337,5.1280000000000001,22.585666666666665,41.933999999999990,3.3866666666666676,279.43333333333334,0.26999999999999980,273.24166666666662
2018-04-11,12:30,101.520,270.92866666666674,94295.533333333340,77.539666666666662,305.56766666666670,270.86033333333330,18.335666666666672,88.774666666666675,147.03266666666667,3.0366666666666671,268.96666666666664,0.26999999999999980,273.24266666666671
2018-04-11,13:00,101.541,271.28199999999993,94331.166666666672,73.737666666666641,307.69233333333341,240.26533333333333,42.841333333333338,224.04999999999990,371.78700000000009,4.0766666666666653,272.66633333333334,0.26999999999999980,273.24466666666660
2018-04-11,13:30,101.562,271.72933333333333,94356.000000000000,67.216999999999999,311.78600000000000,251.18766666666664,63.947000000000017,343.90666666666669,599.28633333333335,5.2833333333333332,285.04433333333333,0.26999999999999980,273.24466666666666
2018-04-11,14:00,101.583,272.18433333333331,94371.866666666669,61.380666666666670,313.57533333333328,244.02133333333333,67.148333333333326,371.57399999999996,664.24966666666660,5.4299999999999988,283.24399999999997,0.26999999999999980,273.24466666666666
2018-04-11,14:30,101.604,272.70900000000000,94384.833333333328,54.751333333333342,318.03199999999998,244.41899999999998,94.539333333333332,519.71566666666672,944.08666666666670,5.3133333333333335,289.75466666666665,0.26999999999999980,273.24499999999995
2018-04-11,15:00,101.624,273.52566666666667,94392.600000000006,50.014000000000003,324.40000000000003,249.51266666666666,111.15066666666669,604.07299999999987,1123.6913333333330,4.0166666666666666,280.37833333333333,0.26999999999999980,273.24333333333340
2018-04-11,15:30,101.645,274.01733333333340,94409.899999999994,44.400666666666666,327.65599999999989,251.82966666666670,127.11500000000001,680.13700000000017,1285.2003333333334,4.4166666666666670,267.63366666666667,0.26999999999999980,273.24866666666668
2018-04-11,16:00,101.666,274.85333333333330,94408.100000000006,38.923333333333332,333.09166666666664,255.40766666666664,140.89766666666668,746.57200000000012,1431.5853333333330,3.8166666666666660,276.72199999999998,0.26999999999999980,273.25000000000000
2018-04-11,16:30,101.687,275.14333333333332,94409.133333333331,33.473333333333329,334.72466666666668,255.68833333333333,152.92033333333333,802.20933333333335,1551.6726666666668,3.7633333333333328,269.03399999999999,0.26999999999999980,273.24666666666673
2018-04-11,17:00,101.708,275.98966666666666,94422.333333333328,32.407333333333341,340.18533333333346,260.99166666666667,158.34966666666668,835.48099999999999,1638.8176666666666,3.0366666666666675,280.37733333333330,0.26999999999999980,273.24333333333340
2018-04-11,17:30,101.729,276.66100000000000,94413.399999999994,30.286333333333332,342.86299999999994,262.96699999999998,163.66700000000000,862.83899999999994,1703.8696666666669,3.3900000000000001,238.42200000000000,0.26999999999999980,273.24433333333326
2018-04-11,18:00,101.749,276.99166666666673,94397.466666666660,30.151000000000007,343.42066666666665,264.56299999999999,165.85933333333330,877.79933333333349,1741.4009999999996,3.5999999999999996,197.90000000000001,0.26999999999999980,273.24600000000004
2018-04-11,18:30,101.770,277.24200000000002,94372.866666666669,28.297333333333334,345.02766666666668,264.82499999999999,164.14433333333332,874.02033333333338,1743.5856666666673,3.0599999999999996,189.83300000000000,0.26999999999999980,273.24299999999999
2018-04-11,19:00,101.791,277.88566666666668,94366.399999999994,26.586000000000002,347.35866666666669,267.05300000000000,158.05733333333336,857.20866666666666,1716.4150000000002,3.4366666666666670,235.04366666666664,0.26999999999999980,273.24633333333333
2018-04-11,19:30,101.812,278.17233333333331,94356.199999999997,26.559999999999995,346.40066666666667,267.22500000000002,149.02633333333333,826.18200000000002,1657.5956666666668,4.0833333333333330,219.62233333333333,0.26999999999999980,273.24233333333336
2018-04-11,20:00,101.833,278.42499999999995,94358.100000000006,26.288999999999998,347.32200000000012,267.37833333333333,137.51300000000003,783.56833333333327,1574.0576666666666,3.4133333333333331,220.58900000000000,0.26999999999999980,273.24500000000000
2018-04-11,20:30,101.854,278.75633333333337,94334.600000000006,24.736666666666665,347.79433333333333,267.40233333333339,124.52400000000002,728.69266666666658,1465.8183333333329,3.5533333333333332,214.93266666666668,0.26999999999999980,273.24466666666666
2018-04-11,21:00,101.874,279.07700000000011,94306.966666666660,22.481333333333339,348.27533333333332,266.76666666666671,110.54700000000001,654.37066666666681,1316.8883333333333,3.2333333333333338,224.07733333333331,0.26999999999999980,273.24300000000005
2018-04-11,21:30,101.895,279.42700000000002,94285.433333333334,22.688333333333336,348.89666666666665,267.53399999999999,97.509333333333331,588.72266666666678,1184.9409999999998,3.1166666666666663,228.34466666666668,0.26999999999999980,273.24633333333338
2018-04-11,22:00,101.916,279.66433333333339,94265.866666666669,24.632333333333332,348.17900000000003,267.90766666666667,79.039000000000001,484.75533333333334,976.95766666666668,3.4500000000000006,223.83266666666665,0.26999999999999980,273.24700000000001
2018-04-11,22:30,101.937,279.62000000000000,94258.566666666666,23.800333333333331,346.63199999999989,266.19233333333335,64.043333333333322,394.10000000000008,788.97933333333322,3.6400000000000006,208.30033333333333,0.26999999999999980,273.24366666666668
2018-04-11,23:00,101.958,279.64699999999999,94240.433333333334,22.368666666666670,345.30966666666666,264.57666666666671,47.320000000000014,290.19033333333340,578.24166666666656,2.6700000000000004,188.50033333333334,0.26999999999999980,273.24566666666669
2018-04-11,23:30,101.979,279.66933333333333,94222.899999999994,21.771999999999998,344.09800000000001,267.24133333333327,31.197333333333333,184.00866666666667,363.90233333333339,2.0566666666666666,155.23400000000001,0.26999999999999980,273.24499999999995
2018-04-12,00:00,102.000,279.41100000000000,94194.033333333340,22.557666666666673,339.60633333333328,263.03766666666667,13.856666666666667,73.596999999999994,160.67200000000000,1.8600000000000001,146.54433333333333,0.26999999999999980,273.25100000000003
